Weather History for KIGM

Nearest airport to NA, NA.

See history from more local stations
Change the Weather History Date:

Friday, June 7, 2013

  Actual Average Record
Temperature  
Mean Temperature 86 °F 75 °F  
Max Temperature 106 °F 91 °F 106 °F (2013)
Min Temperature 66 °F 59 °F 36 °F (1906)
Degree Days  
Heating Degree Days 0 0  
Month to date heating degree days 0 0  
Since 1 June heating degree days 0 0  
Since 1 July heating degree days 2899 3100  
Cooling Degree Days 21 11  
Month to date cooling degree days 113 68  
Year to date cooling degree days 335 266  
Since 1 June cooling degree days 113 68  
Growing Degree Days 36 (Base 50)    
Moisture  
Dew Point 15 °F    
Average Humidity 11    
Maximum Humidity 18    
Minimum Humidity 3    
Precipitation  
Precipitation 0.00 in 0.00 in 0.28 in (1970)
Month to date precipitation 0.00 0.01  
Year to date precipitation 1.18 3.47  
Sea Level Pressure  
Sea Level Pressure 29.63 in    
Wind  
Wind Speed 6 mph (SW)    
Max Wind Speed 21 mph    
Max Gust Speed 28 mph    
Visibility 10 miles    
Events      
T = Trace of Precipitation, MM = Missing Value Source: NWS Daily Summary

Daily Weather History Graph

Daily Weather History Graph

Search for Another Location

Airport or City:

Trip Planner

Search our weather history database for the weather conditions in past years. The results will help you decide how hot, cold, wet, or windy it might be!

Date:

Astronomy

Jun. 07, 2013 Rise Set
Actual Time 5:20 AM MST 7:48 PM MST
Civil Twilight 4:51 AM MST 8:18 PM MST
Nautical Twilight 4:14 AM MST 8:54 PM MST
Astronomical Twilight 3:34 AM MST 9:35 PM MST
Moon 4:43 AM MST (6/7) 7:08 PM MST (6/7)
Length of Visible Light 15h 27m
Length of Day
14h 27m
Waning Crescent, 1% of the Moon is Illuminated
Jun 7
Waning Crescent
Jun 8
New
Jun 16
First Quarter
Jun 23
Full
Jun 29
Last Quarter

Hourly Weather History & Observations

Time (MST) Temp. Dew Point Humidity Pressure Visibility Wind Dir Wind Speed Gust Speed Precip Events Conditions
12:51 AM 77.0 °F 18.0 °F 11% 29.65 in 10.0 mi SSW 9.2 mph - N/A   Clear
1:51 AM 77.0 °F 19.9 °F 12% 29.64 in 10.0 mi South 11.5 mph - N/A   Clear
2:51 AM 73.0 °F 19.9 °F 14% 29.64 in 10.0 mi Calm Calm - N/A   Clear
3:51 AM 73.9 °F 21.0 °F 14% 29.65 in 10.0 mi SSE 9.2 mph - N/A   Clear
4:51 AM 68.0 °F 21.0 °F 17% 29.66 in 10.0 mi SSW 3.5 mph - N/A   Clear
5:51 AM 66.9 °F 21.0 °F 17% 29.68 in 10.0 mi Calm Calm - N/A   Clear
6:51 AM 78.1 °F 24.1 °F 14% 29.68 in 10.0 mi East 3.5 mph - N/A   Clear
7:51 AM 84.0 °F 23.0 °F 11% 29.69 in 10.0 mi Calm Calm - N/A   Clear
8:51 AM 91.0 °F 19.9 °F 7% 29.69 in 10.0 mi Variable 4.6 mph - N/A   Clear
9:51 AM 97.0 °F 15.1 °F 5% 29.68 in 10.0 mi Variable 5.8 mph - N/A   Clear
10:51 AM 100.0 °F 12.0 °F 4% 29.68 in 10.0 mi Variable 4.6 mph - N/A   Clear
11:51 AM 102.9 °F 10.9 °F 4% 29.65 in 10.0 mi North 8.1 mph - N/A   Clear
12:51 PM 104.0 °F 9.0 °F 4% 29.63 in 10.0 mi West 8.1 mph - N/A   Clear
1:51 PM 104.0 °F 10.0 °F 4% 29.62 in 10.0 mi NW 9.2 mph 23.0 mph N/A   Clear
2:51 PM 102.9 °F 9.0 °F 4% 29.61 in 10.0 mi Variable 3.5 mph 18.4 mph N/A   Clear
3:51 PM 102.9 °F 9.0 °F 4% 29.58 in 10.0 mi Variable 3.5 mph - N/A   Clear
4:51 PM 105.1 °F 9.0 °F 4% 29.57 in 10.0 mi Variable 4.6 mph - N/A   Clear
5:51 PM 102.9 °F 10.0 °F 4% 29.57 in 10.0 mi NNE 12.7 mph 17.3 mph N/A   Clear
6:51 PM 100.0 °F 12.0 °F 4% 29.56 in 10.0 mi North 17.3 mph - N/A   Clear
7:51 PM 93.9 °F 12.0 °F 5% 29.57 in 10.0 mi NNW 10.4 mph - N/A   Clear
8:51 PM 84.9 °F 12.0 °F 7% 29.59 in 10.0 mi Calm Calm - N/A   Clear
9:51 PM 77.0 °F 12.0 °F 8% 29.60 in 10.0 mi SE 4.6 mph - N/A   Clear
10:51 PM 75.9 °F 12.9 °F 9% 29.59 in 10.0 mi SSE 8.1 mph - N/A   Clear
11:51 PM 77.0 °F 12.9 °F 9% 29.59 in 10.0 mi North 6.9 mph - N/A   Clear